Home > Weather > Ittoqqortoormiit > Past weeks

Flag for Greenland Past Weather in Ittoqqortoormiit, Greenland — Yesterday and Last 2 Weeks

Now
48 °F

Passing clouds.


Feels Like: 46 °F
Forecast: 34 / 44 °F
Wind: 5 mph from South

Location: Scoresbysund

Current Time: Aug 27, 2016 at 3:31:49 PM

Latest Report: Aug 27, 2016 at 2:00 PM


Visibility: 28 mi

Pressure: 30.18 "Hg

Humidity: 53%

Dew Point: 32 °F

Location of IttoqqortoormiitLocation

Past Weather in Ittoqqortoormiit — Graph

°F

Ittoqqortoormiit Temperature Yesterday

Maximum temperature yesterday: 48 °F (at 1:00 AM)
Minimum temperature yesterday: 42 °F (at 11:00 PM)
Average temperature yesterday: 45 °F

High & Low Weather Summary for the Past Weeks

 TemperatureHumidityPressure
High59 °F (Aug 20, 12:00 PM)100% (Aug 19, 2:00 AM)30.24 "Hg (Aug 19, 2:00 AM)
Low39 °F (Aug 24, 7:00 AM)33% (Aug 21, 10:00 AM)29.59 "Hg (Aug 13, 9:00 AM)
Average46 °F75%29.89 "Hg
* Reported Aug 12 2:00 PM — Aug 27 2:00 PM, Ittoqqortoormiit, Weather by CustomWeather, © 2016

Note: Actual official high and low records may vary slightly from our data, if they occured in-between our weather recording intervals... More about our weather records

Advertising

Ittoqqortoormiit Weather History for the Previous 24 Hours

Scroll right to see more
 ConditionsComfort  
Time TempWeatherWind HumidityBarometerVisibility
2:00 PM
Sat, Aug 27
48 °FPassing clouds.5 mph53%30.18 "Hg28 mi
1:00 PM46 °FScattered clouds.6 mph61%30.20 "Hg22 mi
12:00 PM47 °FPartly sunny.5 mph54%30.21 "Hg25 mi
11:00 AM46 °FOvercast.6 mph57%30.22 "Hg22 mi
10:00 AM45 °FPassing clouds.2 mph61%30.22 "Hg28 mi
9:00 AM44 °FFog.1 mph65%30.23 "Hg5 mi
8:00 AM43 °FPassing clouds.2 mph61%30.23 "Hg28 mi
7:00 AM40 °FOvercast.2 mph69%30.23 "Hg31 mi
6:00 AM40 °FOvercast.5 mph66%30.23 "Hg31 mi
5:00 AM40 °FOvercast.5 mph68%30.24 "Hg31 mi
4:00 AM40 °FOvercast.2 mph70%30.24 "Hg31 mi
3:00 AM41 °FOvercast.6 mph70%30.24 "Hg31 mi
2:00 AM40 °FOvercast.7 mph74%30.24 "Hg31 mi
1:00 AM41 °FOvercast.12 mph72%30.23 "Hg31 mi
12:00 AM41 °FOvercast.13 mph68%30.23 "Hg31 mi
11:00 PM
Fri, Aug 26
42 °FOvercast.14 mph61%30.22 "Hg31 mi
10:00 PM42 °FOvercast.14 mph58%30.21 "Hg31 mi
9:00 PM42 °FOvercast.10 mph62%30.22 "Hg31 mi
8:00 PM43 °FOvercast.16 mph60%30.21 "Hg31 mi
7:00 PM44 °FOvercast.14 mph60%30.20 "Hg31 mi
6:00 PM44 °FOvercast.18 mph64%30.19 "Hg25 mi
5:00 PM44 °FOvercast.21 mph67%30.19 "Hg25 mi
3:00 PM44 °FOvercast.17 mph65%30.20 "Hg25 mi
Weather by CustomWeather, © 2016

See weather overviewHow to use our weather pages